Flag for Canada Weather past 2 weeks in Newmarket, Ontario, Canada

57 °F


Feels Like: 53 °F
Forecast: 29 / 54 °F
Wind: 17 mph from Southwest

Location: Borden

Current Time: Nov 27, 2015 at 3:53:39 AM

Latest Report: Nov 27, 2015 at 3:00 AM

Visibility: 9 mi

Pressure: 30.22 "Hg

Humidity: 67%

Dew point: 46 °F

Location of NewmarketLocation

Historic Weather in Newmarket — Graph


Newmarket temperature yesterday

Maximum temperature yesterday: 59 °F (at 9:00 PM)
Minimum temperature yesterday: 39 °F (at 12:00 AM)
Average temperature yesterday: 49 °F

Past Weeks' High & Low Weather Summary

High59 °F (Nov 19, 2:59 AM)100% (Nov 12, 3:00 AM)30.58 "Hg (Nov 12, 3:00 AM)
Low10 °F (Nov 23, 2:00 AM)37% (Nov 17, 3:00 PM)29.26 "Hg (Nov 12, 1:04 PM)
Average38 °F82%30.06 "Hg
* Reported Nov 12 2:00 AM — Nov 27 2:03 AM, Newmarket, Weather by CustomWeather, © 2015

Note: Actual official high and low records may vary slightly from our data, if they occured in-between our weather recording intervals... More about our weather records


Newmarket weather history for previous 24 hours

Time TempWeatherWind HumidityBarometerVisibility
2:03 AM
Fri, Nov 27
57 °FOvercast.18 mph67%30.21 "Hg9 mi
1:03 AM59 °FMostly cloudy.20 mph59%30.22 "Hg9 mi
12:47 AM59 °FLight rain. Mostly cloudy.18 mph59%30.23 "Hg9 mi
12:00 AM59 °FMostly cloudy.23 mph59%30.24 "Hg9 mi
11:00 PM
Thu, Nov 26
59 °FPassing clouds.20 mph63%30.24 "Hg9 mi
10:00 PM59 °FPassing clouds.23 mph63%30.24 "Hg9 mi
9:00 PM59 °FPassing clouds.24 mph63%30.25 "Hg9 mi
8:00 PM57 °FClear.20 mph67%30.25 "Hg9 mi
7:00 PM55 °FClear.22 mph67%30.27 "Hg9 mi
6:00 PM55 °FPassing clouds.22 mph67%30.30 "Hg9 mi
5:02 PM54 °FPassing clouds.13 mph72%30.31 "Hg9 mi
4:00 PM54 °FOvercast.18 mph72%30.32 "Hg9 mi
3:00 PM54 °FPartly sunny.18 mph72%30.34 "Hg9 mi
2:00 PM52 °FMore clouds than sun.22 mph77%30.36 "Hg9 mi
1:00 PM50 °FCloudy.13 mph82%30.39 "Hg9 mi
12:00 PM48 °FLight rain. Overcast.15 mph87%30.40 "Hg9 mi
11:00 AM48 °FOvercast.15 mph82%30.41 "Hg9 mi
10:00 AM46 °FLight rain. Mostly cloudy.13 mph82%30.42 "Hg9 mi
9:00 AM46 °FBroken clouds.9 mph76%30.42 "Hg9 mi
8:00 AM46 °FOvercast.7 mph66%30.43 "Hg9 mi
7:00 AM46 °FPassing clouds.8 mph62%30.42 "Hg9 mi
6:00 AM46 °FClear.8 mph62%30.40 "Hg9 mi
5:00 AM45 °FClear.7 mph66%30.40 "Hg9 mi
4:00 AM45 °FClear.10 mph66%30.40 "Hg9 mi
3:00 AM41 °FClear.6 mph76%30.41 "Hg9 mi
Weather by CustomWeather, © 2015

See weather overviewHow to use our weather pages